Time,TemperatureF,DewpointF,PressureIn,WindDirection,WindDirectionDegrees,WindSpeedMPH,WindSpeedGustMPH,Humidity,HourlyPrecipIn,Conditions,Clouds,dailyrainin,SoftwareType,DateUTC
2014-01-15 00:00:00,34.0,25.6,27.46,NW,315,0.0,0.0,71,0.00,,,0.00,VWS V15.00,2014-01-15 05:00:00,
2014-01-15 00:01:00,34.0,25.6,27.46,NW,315,0.0,0.0,71,0.00,,,0.00,VWS V15.00,2014-01-15 05:01:00,
2014-01-15 00:02:00,34.0,25.6,27.46,NW,315,0.0,0.0,71,0.00,,,0.00,VWS V15.00,2014-01-15 05:02:00,
2014-01-15 00:03:00,34.0,25.6,27.46,NW,315,0.0,0.0,71,0.00,,,0.00,VWS V15.00,2014-01-15 05:03:00,
2014-01-15 00:04:00,34.0,25.6,27.46,NW,315,0.0,0.0,71,0.00,,,0.00,VWS V15.00,2014-01-15 05:04:00,
2014-01-15 00:05:00,34.0,25.6,27.46,NW,315,0.0,0.0,71,0.00,,,0.00,VWS V15.00,2014-01-15 05:05:00,
2014-01-15 00:06:00,34.0,25.6,27.46,NW,315,0.0,0.0,71,0.00,,,0.00,VWS V15.00,2014-01-15 05:06:00,
2014-01-15 00:07:00,34.0,25.6,27.46,NW,315,0.0,0.0,71,0.00,,,0.00,VWS V15.00,2014-01-15 05:07:00,
2014-01-15 00:08:00,34.0,25.6,27.46,NW,315,0.0,0.0,71,0.00,,,0.00,VWS V15.00,2014-01-15 05:08:00,
2014-01-15 00:09:00,34.0,25.9,27.46,NW,315,0.0,0.0,72,0.00,,,0.00,VWS V15.00,2014-01-15 05:09:00,
2014-01-15 00:10:00,34.0,25.9,27.46,NW,315,0.0,0.0,72,0.00,,,0.00,VWS V15.00,2014-01-15 05:10:00,
2014-01-15 00:11:00,34.0,25.9,27.46,NW,315,0.0,0.0,72,0.00,,,0.00,VWS V15.00,2014-01-15 05:11:00,
2014-01-15 00:12:00,34.0,25.9,27.46,NW,315,0.0,0.0,72,0.00,,,0.00,VWS V15.00,2014-01-15 05:12:00,
2014-01-15 00:13:00,34.0,25.9,27.46,NW,315,0.0,0.0,72,0.00,,,0.00,VWS V15.00,2014-01-15 05:13:00,
2014-01-15 00:14:00,34.0,25.9,27.46,NW,315,0.0,0.0,72,0.00,,,0.00,VWS V15.00,2014-01-15 05:14:00,
2014-01-15 00:15:00,34.0,25.9,27.46,NW,315,0.0,0.0,72,0.00,,,0.00,VWS V15.00,2014-01-15 05:15:00,
2014-01-15 00:16:00,34.0,25.9,27.46,NW,315,0.0,0.0,72,0.00,,,0.00,VWS V15.00,2014-01-15 05:16:00,
2014-01-15 00:17:00,34.0,25.9,27.46,NW,315,0.0,0.0,72,0.00,,,0.00,VWS V15.00,2014-01-15 05:17:00,
2014-01-15 00:18:00,34.0,25.9,27.46,NW,315,0.0,0.0,72,0.00,,,0.00,VWS V15.00,2014-01-15 05:18:00,
2014-01-15 00:19:00,34.0,25.9,27.46,NW,315,0.0,0.0,72,0.00,,,0.00,VWS V15.00,2014-01-15 05:19:00,
2014-01-15 00:20:00,34.0,25.9,27.46,NW,315,0.0,0.0,72,0.00,,,0.00,VWS V15.00,2014-01-15 05:20:00,
2014-01-15 00:21:00,34.0,25.9,27.46,NW,315,0.0,0.0,72,0.00,,,0.00,VWS V15.00,2014-01-15 05:21:00,
2014-01-15 00:22:00,34.0,25.9,27.46,NW,315,0.0,0.0,72,0.00,,,0.00,VWS V15.00,2014-01-15 05:22:00,
2014-01-15 00:23:00,34.0,25.9,27.46,NW,315,0.0,0.0,72,0.00,,,0.00,VWS V15.00,2014-01-15 05:23:00,
2014-01-15 00:24:00,34.0,25.9,27.46,NW,315,0.0,0.0,72,0.00,,,0.00,VWS V15.00,2014-01-15 05:24:00,
2014-01-15 00:25:00,34.0,25.9,27.46,NW,315,0.0,0.0,72,0.00,,,0.00,VWS V15.00,2014-01-15 05:25:00,
2014-01-15 00:26:00,34.0,25.9,27.46,NW,315,0.0,0.0,72,0.00,,,0.00,VWS V15.00,2014-01-15 05:26:00,
2014-01-15 00:27:00,34.0,25.9,27.46,NW,315,0.0,0.0,72,0.00,,,0.00,VWS V15.00,2014-01-15 05:27:00,
2014-01-15 00:28:00,34.0,25.9,27.46,NW,315,0.0,0.0,72,0.00,,,0.00,VWS V15.00,2014-01-15 05:28:00,
2014-01-15 00:29:00,34.0,25.9,27.46,NW,315,0.0,0.0,72,0.00,,,0.00,VWS V15.00,2014-01-15 05:29:00,
2014-01-15 00:30:00,34.0,25.9,27.46,NW,315,0.0,0.0,72,0.00,,,0.00,VWS V15.00,2014-01-15 05:30:00,
2014-01-15 00:31:00,34.0,25.9,27.46,NW,315,0.0,0.0,72,0.00,,,0.00,VWS V15.00,2014-01-15 05:31:00,
2014-01-15 00:32:00,34.0,25.9,27.46,NW,315,0.0,0.0,72,0.00,,,0.00,VWS V15.00,2014-01-15 05:32:00,
2014-01-15 00:33:00,34.0,25.9,27.46,NW,315,0.0,0.0,72,0.00,,,0.00,VWS V15.00,2014-01-15 05:33:00,
2014-01-15 00:34:00,34.0,25.9,27.46,NW,315,0.0,0.0,72,0.00,,,0.00,VWS V15.00,2014-01-15 05:34:00,
2014-01-15 00:35:00,34.0,25.9,27.46,NW,315,0.0,0.0,72,0.00,,,0.00,VWS V15.00,2014-01-15 05:35:00,
2014-01-15 00:36:00,34.0,25.9,27.46,NW,315,0.0,0.0,72,0.00,,,0.00,VWS V15.00,2014-01-15 05:36:00,
2014-01-15 00:37:00,34.0,26.2,27.46,NW,315,0.0,0.0,73,0.00,,,0.00,VWS V15.00,2014-01-15 05:37:00,
2014-01-15 00:38:00,34.0,26.2,27.46,NW,315,0.0,0.0,73,0.00,,,0.00,VWS V15.00,2014-01-15 05:38:00,
2014-01-15 00:39:00,34.0,26.2,27.46,NW,315,0.0,0.0,73,0.00,,,0.00,VWS V15.00,2014-01-15 05:39:00,
2014-01-15 00:40:00,34.0,26.2,27.46,NW,315,0.0,0.0,73,0.00,,,0.00,VWS V15.00,2014-01-15 05:40:00,
2014-01-15 00:41:00,34.0,26.2,27.46,NW,315,0.0,0.0,73,0.00,,,0.00,VWS V15.00,2014-01-15 05:41:00,
2014-01-15 00:42:00,34.0,26.2,27.46,NW,315,0.0,0.0,73,0.00,,,0.00,VWS V15.00,2014-01-15 05:42:00,
2014-01-15 00:43:00,34.2,26.4,27.46,NW,315,0.0,0.0,73,0.00,,,0.00,VWS V15.00,2014-01-15 05:43:00,
2014-01-15 00:44:00,34.2,26.4,27.46,NW,315,0.0,0.0,73,0.00,,,0.00,VWS V15.00,2014-01-15 05:44:00,
2014-01-15 00:45:00,34.2,26.4,27.46,NW,315,0.0,0.0,73,0.00,,,0.00,VWS V15.00,2014-01-15 05:45:00,
2014-01-15 00:46:00,34.2,26.4,27.46,NW,315,0.0,0.0,73,0.00,,,0.00,VWS V15.00,2014-01-15 05:46:00,
2014-01-15 00:47:00,34.2,26.4,27.46,NW,315,0.0,0.0,73,0.00,,,0.00,VWS V15.00,2014-01-15 05:47:00,
2014-01-15 00:48:00,34.2,26.4,27.46,NW,315,0.0,0.0,73,0.00,,,0.00,VWS V15.00,2014-01-15 05:48:00,
2014-01-15 00:49:00,34.2,26.4,27.46,NW,315,0.0,0.0,73,0.00,,,0.00,VWS V15.00,2014-01-15 05:49:00,
2014-01-15 00:50:00,34.3,26.6,27.46,NW,315,0.0,0.0,73,0.00,,,0.00,VWS V15.00,2014-01-15 05:50:00,
2014-01-15 00:51:00,34.3,26.6,27.46,NW,315,0.0,0.0,73,0.00,,,0.00,VWS V15.00,2014-01-15 05:51:00,
2014-01-15 00:52:00,34.3,26.6,27.46,NW,315,0.0,0.0,73,0.00,,,0.00,VWS V15.00,2014-01-15 05:52:00,
2014-01-15 00:53:00,34.3,26.6,27.46,NW,315,0.0,0.0,73,0.00,,,0.00,VWS V15.00,2014-01-15 05:53:00,
2014-01-15 00:54:00,34.3,26.6,27.46,NW,315,0.0,0.0,73,0.00,,,0.00,VWS V15.00,2014-01-15 05:54:00,
2014-01-15 00:55:00,34.2,26.4,27.46,NW,315,0.0,0.0,73,0.00,,,0.00,VWS V15.00,2014-01-15 05:55:00,
2014-01-15 00:56:00,34.2,26.4,27.46,NW,315,0.0,0.0,73,0.00,,,0.00,VWS V15.00,2014-01-15 05:56:00,
2014-01-15 00:57:00,34.2,26.4,27.46,NW,315,0.0,0.0,73,0.00,,,0.00,VWS V15.00,2014-01-15 05:57:00,
2014-01-15 00:58:00,34.0,26.2,27.46,NW,315,0.0,0.0,73,0.00,,,0.00,VWS V15.00,2014-01-15 05:58:00,
2014-01-15 00:59:00,34.0,26.2,27.46,NW,315,0.0,0.0,73,0.00,,,0.00,VWS V15.00,2014-01-15 05:59:00,
2014-01-15 01:00:00,34.0,26.2,27.46,NW,315,0.0,0.0,73,0.00,,,0.00,VWS V15.00,2014-01-15 06:00:00,
2014-01-15 01:01:00,34.0,25.9,27.46,NW,315,0.0,0.0,72,0.00,,,0.00,VWS V15.00,2014-01-15 06:01:00,
2014-01-15 01:02:00,34.0,25.9,27.46,NW,315,0.0,0.0,72,0.00,,,0.00,VWS V15.00,2014-01-15 06:02:00,
2014-01-15 01:03:00,33.8,25.8,27.46,NW,315,0.0,0.0,72,0.00,,,0.00,VWS V15.00,2014-01-15 06:03:00,
2014-01-15 01:04:00,33.8,25.8,27.46,NW,315,0.0,0.0,72,0.00,,,0.00,VWS V15.00,2014-01-15 06:04:00,
2014-01-15 01:05:00,33.8,25.8,27.46,NW,315,0.0,0.0,72,0.00,,,0.00,VWS V15.00,2014-01-15 06:05:00,
2014-01-15 01:06:00,33.8,25.7,27.46,NW,315,0.0,0.0,72,0.00,,,0.00,VWS V15.00,2014-01-15 06:06:00,
2014-01-15 01:07:00,33.8,25.8,27.46,NW,315,0.0,0.0,72,0.00,,,0.00,VWS V15.00,2014-01-15 06:07:00,
2014-01-15 01:08:00,33.8,25.8,27.46,NW,315,0.0,0.0,72,0.00,,,0.00,VWS V15.00,2014-01-15 06:08:00,
2014-01-15 01:09:00,33.8,25.8,27.46,NW,315,0.0,0.0,72,0.00,,,0.00,VWS V15.00,2014-01-15 06:09:00,
2014-01-15 01:10:00,33.8,25.8,27.46,NW,315,0.0,0.0,72,0.00,,,0.00,VWS V15.00,2014-01-15 06:10:00,
2014-01-15 01:11:00,33.8,25.7,27.46,NW,315,0.0,0.0,72,0.00,,,0.00,VWS V15.00,2014-01-15 06:11:00,
2014-01-15 01:12:00,33.8,25.8,27.46,NW,315,0.0,0.0,72,0.00,,,0.00,VWS V15.00,2014-01-15 06:12:00,
2014-01-15 01:13:00,33.8,25.8,27.46,NW,315,0.0,0.0,72,0.00,,,0.00,VWS V15.00,2014-01-15 06:13:00,
2014-01-15 01:14:00,33.6,25.9,27.46,NW,315,0.0,0.0,73,0.00,,,0.00,VWS V15.00,2014-01-15 06:14:00,
2014-01-15 01:15:00,33.6,25.9,27.46,NW,315,0.0,0.0,73,0.00,,,0.00,VWS V15.00,2014-01-15 06:15:00,
2014-01-15 01:16:00,33.6,25.9,27.46,South,184,0.0,0.0,73,0.00,,,0.00,VWS V15.00,2014-01-15 06:16:00,
2014-01-15 01:17:00,33.6,25.9,27.46,South,184,0.0,0.0,73,0.00,,,0.00,VWS V15.00,2014-01-15 06:17:00,
2014-01-15 01:18:00,33.6,25.9,27.46,South,184,0.0,0.0,73,0.00,,,0.00,VWS V15.00,2014-01-15 06:18:00,
2014-01-15 01:19:00,33.6,25.9,27.46,South,184,0.0,0.0,73,0.00,,,0.00,VWS V15.00,2014-01-15 06:19:00,
2014-01-15 01:20:00,33.6,25.9,27.46,South,184,0.0,0.0,73,0.00,,,0.00,VWS V15.00,2014-01-15 06:20:00,
2014-01-15 01:21:00,33.6,25.9,27.46,NW,324,0.0,0.0,73,0.00,,,0.00,VWS V15.00,2014-01-15 06:21:00,
2014-01-15 01:22:00,33.6,25.9,27.46,NW,324,0.0,0.0,73,0.00,,,0.00,VWS V15.00,2014-01-15 06:22:00,
2014-01-15 01:23:00,33.6,25.9,27.46,NW,324,0.0,0.0,73,0.00,,,0.00,VWS V15.00,2014-01-15 06:23:00,
2014-01-15 01:24:00,33.6,25.9,27.46,NW,324,0.0,0.0,73,0.00,,,0.00,VWS V15.00,2014-01-15 06:24:00,
2014-01-15 01:25:00,33.6,25.9,27.46,NW,324,0.0,0.0,73,0.00,,,0.00,VWS V15.00,2014-01-15 06:25:00,
2014-01-15 01:26:00,33.6,25.9,27.46,NW,324,0.0,0.0,73,0.00,,,0.00,VWS V15.00,2014-01-15 06:26:00,
2014-01-15 01:27:00,33.6,25.9,27.46,NW,324,0.0,0.0,73,0.00,,,0.00,VWS V15.00,2014-01-15 06:27:00,
2014-01-15 01:28:00,33.6,25.9,27.46,NW,324,0.0,0.0,73,0.00,,,0.00,VWS V15.00,2014-01-15 06:28:00,
2014-01-15 01:29:00,33.6,25.9,27.46,NW,324,0.0,0.0,73,0.00,,,0.00,VWS V15.00,2014-01-15 06:29:00,
2014-01-15 01:30:00,33.6,25.9,27.46,SSE,156,0.0,0.0,73,0.00,,,0.00,VWS V15.00,2014-01-15 06:30:00,
2014-01-15 01:31:00,33.6,25.9,27.46,SSE,156,0.0,0.0,73,0.00,,,0.00,VWS V15.00,2014-01-15 06:31:00,
2014-01-15 01:32:00,33.6,25.9,27.46,SSE,156,0.0,0.0,73,0.00,,,0.00,VWS V15.00,2014-01-15 06:32:00,
2014-01-15 01:33:00,33.6,25.9,27.46,SSE,156,0.0,0.0,73,0.00,,,0.00,VWS V15.00,2014-01-15 06:33:00,
2014-01-15 01:34:00,33.6,25.9,27.46,SSE,156,0.0,0.0,73,0.00,,,0.00,VWS V15.00,2014-01-15 06:34:00,
2014-01-15 01:35:00,33.6,26.2,27.46,SSE,156,0.0,0.0,74,0.00,,,0.00,VWS V15.00,2014-01-15 06:35:00,
2014-01-15 01:36:00,33.6,26.2,27.46,SSE,156,0.0,0.0,74,0.00,,,0.00,VWS V15.00,2014-01-15 06:36:00,
2014-01-15 01:37:00,33.6,26.2,27.46,SSE,156,0.0,0.0,74,0.00,,,0.00,VWS V15.00,2014-01-15 06:37:00,
2014-01-15 01:38:00,33.8,26.4,27.46,SSE,156,0.0,0.0,74,0.00,,,0.00,VWS V15.00,2014-01-15 06:38:00,
2014-01-15 01:39:00,33.8,26.4,27.46,SSE,156,0.0,0.0,74,0.00,,,0.00,VWS V15.00,2014-01-15 06:39:00,
2014-01-15 01:40:00,33.8,26.4,27.46,SSE,156,0.0,0.0,74,0.00,,,0.00,VWS V15.00,2014-01-15 06:40:00,
2014-01-15 01:41:00,33.8,26.4,27.46,SSE,156,0.0,0.0,74,0.00,,,0.00,VWS V15.00,2014-01-15 06:41:00,
2014-01-15 01:42:00,33.8,26.4,27.46,SSE,156,0.0,0.0,74,0.00,,,0.00,VWS V15.00,2014-01-15 06:42:00,
2014-01-15 01:43:00,33.8,26.4,27.46,SSE,156,0.0,0.0,74,0.00,,,0.00,VWS V15.00,2014-01-15 06:43:00,
2014-01-15 01:44:00,34.0,26.9,27.46,SSE,156,0.0,0.0,75,0.00,,,0.00,VWS V15.00,2014-01-15 06:44:00,
2014-01-15 01:45:00,34.0,26.9,27.46,SSE,156,0.0,0.0,75,0.00,,,0.00,VWS V15.00,2014-01-15 06:45:00,
2014-01-15 01:46:00,34.2,27.1,27.46,SSE,156,0.0,0.0,75,0.00,,,0.00,VWS V15.00,2014-01-15 06:46:00,
2014-01-15 01:47:00,34.2,27.1,27.46,SSE,156,0.0,0.0,75,0.00,,,0.00,VWS V15.00,2014-01-15 06:47:00,
2014-01-15 01:48:00,34.2,27.1,27.46,SSE,156,0.0,0.0,75,0.00,,,0.00,VWS V15.00,2014-01-15 06:48:00,
2014-01-15 01:49:00,34.2,27.1,27.46,SSE,156,0.0,0.0,75,0.00,,,0.00,VWS V15.00,2014-01-15 06:49:00,
2014-01-15 01:50:00,34.2,27.1,27.46,SSE,156,0.0,0.0,75,0.00,,,0.00,VWS V15.00,2014-01-15 06:50:00,
2014-01-15 01:51:00,34.0,26.6,27.46,SSE,156,0.0,0.0,74,0.00,,,0.00,VWS V15.00,2014-01-15 06:51:00,
2014-01-15 01:52:00,34.0,26.6,27.46,SSE,156,0.0,0.0,74,0.00,,,0.00,VWS V15.00,2014-01-15 06:52:00,
2014-01-15 01:53:00,34.0,26.6,27.46,SSE,156,0.0,0.0,74,0.00,,,0.00,VWS V15.00,2014-01-15 06:53:00,
2014-01-15 01:54:00,34.0,26.6,27.46,SSE,156,0.0,0.0,74,0.00,,,0.00,VWS V15.00,2014-01-15 06:54:00,
2014-01-15 01:55:00,34.0,26.6,27.46,SSE,156,0.0,0.0,74,0.00,,,0.00,VWS V15.00,2014-01-15 06:55:00,
2014-01-15 01:56:00,34.0,26.6,27.46,SSE,156,0.0,0.0,74,0.00,,,0.00,VWS V15.00,2014-01-15 06:56:00,
2014-01-15 01:57:00,34.0,26.6,27.46,SSE,156,0.0,0.0,74,0.00,,,0.00,VWS V15.00,2014-01-15 06:57:00,
2014-01-15 01:58:00,34.0,26.6,27.46,SSE,156,0.0,0.0,74,0.00,,,0.00,VWS V15.00,2014-01-15 06:58:00,
2014-01-15 01:59:00,34.0,26.6,27.43,SSE,156,0.0,0.0,74,0.00,,,0.00,VWS V15.00,2014-01-15 06:59:00,
2014-01-15 02:01:00,34.0,26.6,27.43,SSE,156,0.0,0.0,74,0.00,,,0.00,VWS V15.00,2014-01-15 07:01:00,
2014-01-15 02:02:00,34.0,26.6,27.43,SSE,156,0.0,0.0,74,0.00,,,0.00,VWS V15.00,2014-01-15 07:02:00,
2014-01-15 02:03:00,34.0,26.6,27.43,SSE,156,0.0,0.0,74,0.00,,,0.00,VWS V15.00,2014-01-15 07:03:00,
2014-01-15 02:04:00,34.0,26.6,27.43,SSE,156,0.0,0.0,74,0.00,,,0.00,VWS V15.00,2014-01-15 07:04:00,
2014-01-15 02:05:00,34.0,26.6,27.43,SSE,156,0.0,0.0,74,0.00,,,0.00,VWS V15.00,2014-01-15 07:05:00,
2014-01-15 02:06:00,34.0,26.6,27.43,SSE,156,0.0,0.0,74,0.00,,,0.00,VWS V15.00,2014-01-15 07:06:00,
2014-01-15 02:07:00,34.0,26.6,27.43,SSE,156,0.0,0.0,74,0.00,,,0.00,VWS V15.00,2014-01-15 07:07:00,
2014-01-15 02:08:00,34.3,27.2,27.43,SSE,156,0.0,0.0,75,0.00,,,0.00,VWS V15.00,2014-01-15 07:08:00,
2014-01-15 02:09:00,34.3,27.2,27.43,SSE,156,0.0,0.0,75,0.00,,,0.00,VWS V15.00,2014-01-15 07:09:00,
2014-01-15 02:10:00,34.3,27.2,27.43,SSW,198,4.0,4.0,75,0.00,,,0.00,VWS V15.00,2014-01-15 07:10:00,
2014-01-15 02:11:00,34.3,27.2,27.43,SSE,152,0.0,0.0,75,0.00,,,0.00,VWS V15.00,2014-01-15 07:11:00,
2014-01-15 02:12:00,34.3,27.2,27.43,SSE,152,0.0,0.0,75,0.00,,,0.00,VWS V15.00,2014-01-15 07:12:00,
2014-01-15 02:13:00,34.5,27.4,27.43,SSE,152,0.0,0.0,75,0.00,,,0.00,VWS V15.00,2014-01-15 07:13:00,
2014-01-15 02:14:00,34.5,27.4,27.43,SSE,152,0.0,0.0,75,0.00,,,0.00,VWS V15.00,2014-01-15 07:14:00,
2014-01-15 02:15:00,34.5,27.4,27.43,SSE,152,0.0,0.0,75,0.00,,,0.00,VWS V15.00,2014-01-15 07:15:00,
2014-01-15 02:16:00,34.5,27.4,27.43,SSE,152,0.0,0.0,75,0.00,,,0.00,VWS V15.00,2014-01-15 07:16:00,
2014-01-15 02:17:00,34.5,27.4,27.43,SSE,152,0.0,0.0,75,0.00,,,0.00,VWS V15.00,2014-01-15 07:17:00,
2014-01-15 02:18:00,34.7,27.6,27.43,SSE,152,0.0,0.0,75,0.00,,,0.00,VWS V15.00,2014-01-15 07:18:00,
2014-01-15 02:19:00,34.7,27.6,27.43,SSE,152,0.0,0.0,75,0.00,,,0.00,VWS V15.00,2014-01-15 07:19:00,
2014-01-15 02:20:00,34.7,27.6,27.43,SSE,152,0.0,0.0,75,0.00,,,0.00,VWS V15.00,2014-01-15 07:20:00,
2014-01-15 02:21:00,34.9,28.1,27.43,SSE,152,0.0,0.0,76,0.00,,,0.00,VWS V15.00,2014-01-15 07:21:00,
2014-01-15 02:22:00,34.9,28.1,27.43,SSE,152,0.0,0.0,76,0.00,,,0.00,VWS V15.00,2014-01-15 07:22:00,
2014-01-15 02:23:00,34.9,28.1,27.43,SSE,152,0.0,0.0,76,0.00,,,0.00,VWS V15.00,2014-01-15 07:23:00,
2014-01-15 02:24:00,35.1,28.3,27.43,SSE,152,0.0,0.0,76,0.00,,,0.00,VWS V15.00,2014-01-15 07:24:00,
2014-01-15 02:25:00,35.1,28.3,27.43,SSE,152,0.0,0.0,76,0.00,,,0.00,VWS V15.00,2014-01-15 07:25:00,
2014-01-15 02:26:00,35.1,28.3,27.43,SSE,152,0.0,0.0,76,0.00,,,0.00,VWS V15.00,2014-01-15 07:26:00,
2014-01-15 02:27:00,35.1,28.3,27.43,SSE,152,0.0,0.0,76,0.00,,,0.00,VWS V15.00,2014-01-15 07:27:00,
2014-01-15 02:28:00,35.1,28.3,27.43,SSE,152,0.0,0.0,76,0.00,,,0.00,VWS V15.00,2014-01-15 07:28:00,
2014-01-15 02:29:00,35.2,28.5,27.43,SSE,152,0.0,0.0,76,0.00,,,0.00,VWS V15.00,2014-01-15 07:29:00,
2014-01-15 02:30:00,35.2,28.5,27.43,SSE,152,0.0,0.0,76,0.00,,,0.00,VWS V15.00,2014-01-15 07:30:00,
2014-01-15 02:31:00,35.4,28.6,27.43,SSE,152,0.0,0.0,76,0.00,,,0.00,VWS V15.00,2014-01-15 07:31:00,
2014-01-15 02:32:00,35.4,28.6,27.43,SSE,152,0.0,0.0,76,0.00,,,0.00,VWS V15.00,2014-01-15 07:32:00,
2014-01-15 02:33:00,35.4,28.6,27.43,SSE,152,0.0,0.0,76,0.00,,,0.00,VWS V15.00,2014-01-15 07:33:00,
2014-01-15 02:34:00,35.4,28.6,27.43,SSE,152,0.0,0.0,76,0.00,,,0.00,VWS V15.00,2014-01-15 07:34:00,
2014-01-15 02:35:00,35.4,28.6,27.43,SSE,152,0.0,0.0,76,0.00,,,0.00,VWS V15.00,2014-01-15 07:35:00,
2014-01-15 02:36:00,35.4,28.6,27.43,SSE,152,0.0,0.0,76,0.00,,,0.00,VWS V15.00,2014-01-15 07:36:00,
2014-01-15 02:37:00,35.4,28.6,27.43,SSE,152,0.0,0.0,76,0.00,,,0.00,VWS V15.00,2014-01-15 07:37:00,
2014-01-15 02:38:00,35.4,28.6,27.43,SSE,152,0.0,0.0,76,0.00,,,0.00,VWS V15.00,2014-01-15 07:38:00,
2014-01-15 02:39:00,35.4,28.6,27.43,SSE,152,0.0,0.0,76,0.00,,,0.00,VWS V15.00,2014-01-15 07:39:00,
2014-01-15 02:40:00,35.4,28.6,27.43,SSE,152,0.0,0.0,76,0.00,,,0.00,VWS V15.00,2014-01-15 07:40:00,
2014-01-15 02:41:00,35.4,28.6,27.43,SSE,152,0.0,0.0,76,0.00,,,0.00,VWS V15.00,2014-01-15 07:41:00,
2014-01-15 02:42:00,35.4,28.6,27.43,SSE,152,0.0,0.0,76,0.00,,,0.00,VWS V15.00,2014-01-15 07:42:00,
2014-01-15 02:43:00,35.4,28.6,27.43,SSE,152,0.0,0.0,76,0.00,,,0.00,VWS V15.00,2014-01-15 07:43:00,
2014-01-15 02:44:00,35.4,28.3,27.43,SSE,152,0.0,0.0,75,0.00,,,0.00,VWS V15.00,2014-01-15 07:44:00,
2014-01-15 02:45:00,35.4,28.3,27.43,SSE,152,0.0,0.0,75,0.00,,,0.00,VWS V15.00,2014-01-15 07:45:00,
2014-01-15 02:46:00,35.4,28.3,27.43,SSE,152,0.0,0.0,75,0.00,,,0.00,VWS V15.00,2014-01-15 07:46:00,
2014-01-15 02:47:00,35.4,28.3,27.43,SSE,152,0.0,0.0,75,0.00,,,0.00,VWS V15.00,2014-01-15 07:47:00,
2014-01-15 02:48:00,35.4,28.3,27.43,SSE,152,0.0,0.0,75,0.00,,,0.00,VWS V15.00,2014-01-15 07:48:00,
2014-01-15 02:49:00,35.4,28.6,27.43,SSE,152,0.0,0.0,76,0.00,,,0.00,VWS V15.00,2014-01-15 07:49:00,
2014-01-15 02:50:00,35.6,28.5,27.43,SSE,152,0.0,0.0,75,0.00,,,0.00,VWS V15.00,2014-01-15 07:50:00,
2014-01-15 02:51:00,35.6,28.8,27.43,SSE,152,0.0,0.0,76,0.00,,,0.00,VWS V15.00,2014-01-15 07:51:00,
2014-01-15 02:52:00,35.6,28.8,27.43,SSE,152,0.0,0.0,76,0.00,,,0.00,VWS V15.00,2014-01-15 07:52:00,
2014-01-15 02:53:00,35.8,29.0,27.43,SSE,152,0.0,0.0,76,0.00,,,0.00,VWS V15.00,2014-01-15 07:53:00,
2014-01-15 02:54:00,35.8,29.0,27.43,SSE,152,0.0,0.0,76,0.00,,,0.00,VWS V15.00,2014-01-15 07:54:00,
2014-01-15 02:55:00,35.8,29.0,27.43,SSE,152,0.0,0.0,76,0.00,,,0.00,VWS V15.00,2014-01-15 07:55:00,
2014-01-15 02:56:00,35.8,29.0,27.43,SSE,152,0.0,0.0,76,0.00,,,0.00,VWS V15.00,2014-01-15 07:56:00,
2014-01-15 02:57:00,35.8,29.0,27.43,SSE,152,0.0,0.0,76,0.00,,,0.00,VWS V15.00,2014-01-15 07:57:00,
2014-01-15 02:58:00,35.8,29.0,27.43,SSE,152,0.0,0.0,76,0.00,,,0.00,VWS V15.00,2014-01-15 07:58:00,
2014-01-15 02:59:00,36.1,29.3,27.43,SSE,152,0.0,0.0,76,0.00,,,0.00,VWS V15.00,2014-01-15 07:59:00,
2014-01-15 03:00:00,36.1,29.3,27.43,SSE,152,0.0,0.0,76,0.00,,,0.00,VWS V15.00,2014-01-15 08:00:00,
2014-01-15 03:01:00,36.1,29.3,27.43,SSE,152,0.0,0.0,76,0.00,,,0.00,VWS V15.00,2014-01-15 08:01:00,
2014-01-15 03:02:00,36.0,29.1,27.43,SSE,152,0.0,0.0,76,0.00,,,0.00,VWS V15.00,2014-01-15 08:02:00,
2014-01-15 03:03:00,36.0,29.1,27.43,SSE,152,0.0,0.0,76,0.00,,,0.00,VWS V15.00,2014-01-15 08:03:00,
2014-01-15 03:04:00,36.0,29.1,27.43,SSE,152,0.0,0.0,76,0.00,,,0.00,VWS V15.00,2014-01-15 08:04:00,
2014-01-15 03:05:00,36.0,29.1,27.43,SSE,152,0.0,0.0,76,0.00,,,0.00,VWS V15.00,2014-01-15 08:05:00,
2014-01-15 03:06:00,35.8,28.6,27.43,SSE,152,0.0,0.0,75,0.00,,,0.00,VWS V15.00,2014-01-15 08:06:00,
2014-01-15 03:07:00,35.8,28.6,27.43,SSE,152,0.0,0.0,75,0.00,,,0.00,VWS V15.00,2014-01-15 08:07:00,
2014-01-15 03:08:00,35.8,28.6,27.43,SSE,152,0.0,0.0,75,0.00,,,0.00,VWS V15.00,2014-01-15 08:08:00,
2014-01-15 03:09:00,35.8,28.6,27.43,SSE,152,0.0,0.0,75,0.00,,,0.00,VWS V15.00,2014-01-15 08:09:00,
2014-01-15 03:10:00,35.8,28.6,27.43,SSE,152,0.0,0.0,75,0.00,,,0.00,VWS V15.00,2014-01-15 08:10:00,
2014-01-15 03:11:00,35.6,28.5,27.43,SSE,152,0.0,0.0,75,0.00,,,0.00,VWS V15.00,2014-01-15 08:11:00,
2014-01-15 03:12:00,35.6,28.5,27.43,SSE,152,0.0,0.0,75,0.00,,,0.00,VWS V15.00,2014-01-15 08:12:00,
2014-01-15 03:13:00,35.6,28.5,27.43,SSE,152,0.0,0.0,75,0.00,,,0.00,VWS V15.00,2014-01-15 08:13:00,
2014-01-15 03:14:00,35.6,28.5,27.43,SSE,152,0.0,0.0,75,0.00,,,0.00,VWS V15.00,2014-01-15 08:14:00,
2014-01-15 03:15:00,35.6,28.5,27.43,SSE,152,0.0,0.0,75,0.00,,,0.00,VWS V15.00,2014-01-15 08:15:00,
2014-01-15 03:16:00,35.6,28.5,27.43,SSE,152,0.0,0.0,75,0.00,,,0.00,VWS V15.00,2014-01-15 08:16:00,
2014-01-15 03:17:00,35.6,28.5,27.43,SSE,152,0.0,0.0,75,0.00,,,0.00,VWS V15.00,2014-01-15 08:17:00,
2014-01-15 03:18:00,35.6,28.5,27.43,SSE,152,0.0,0.0,75,0.00,,,0.00,VWS V15.00,2014-01-15 08:18:00,
2014-01-15 03:19:00,35.4,28.3,27.43,SSE,152,0.0,0.0,75,0.00,,,0.00,VWS V15.00,2014-01-15 08:19:00,
2014-01-15 03:20:00,35.4,28.3,27.43,SSE,152,0.0,0.0,75,0.00,,,0.00,VWS V15.00,2014-01-15 08:20:00,
2014-01-15 03:21:00,35.4,28.3,27.43,SSE,152,0.0,0.0,75,0.00,,,0.00,VWS V15.00,2014-01-15 08:21:00,
2014-01-15 03:22:00,35.4,28.3,27.43,SSE,152,0.0,0.0,75,0.00,,,0.00,VWS V15.00,2014-01-15 08:22:00,
2014-01-15 03:23:00,35.2,28.1,27.43,SSE,152,0.0,0.0,75,0.00,,,0.00,VWS V15.00,2014-01-15 08:23:00,
2014-01-15 03:24:00,35.2,28.1,27.43,SSE,152,0.0,0.0,75,0.00,,,0.00,VWS V15.00,2014-01-15 08:24:00,
2014-01-15 03:25:00,35.2,28.1,27.43,SSE,152,0.0,0.0,75,0.00,,,0.00,VWS V15.00,2014-01-15 08:25:00,
2014-01-15 03:26:00,35.2,28.1,27.43,SSE,152,0.0,0.0,75,0.00,,,0.00,VWS V15.00,2014-01-15 08:26:00,
2014-01-15 03:27:00,35.2,28.1,27.43,SSE,152,0.0,0.0,75,0.00,,,0.00,VWS V15.00,2014-01-15 08:27:00,
2014-01-15 03:28:00,35.1,28.3,27.40,SSE,152,0.0,0.0,76,0.00,,,0.00,VWS V15.00,2014-01-15 08:28:00,
2014-01-15 03:29:00,35.1,28.3,27.40,SSE,152,0.0,0.0,76,0.00,,,0.00,VWS V15.00,2014-01-15 08:29:00,
2014-01-15 03:30:00,35.1,28.3,27.40,SSE,152,0.0,0.0,76,0.00,,,0.00,VWS V15.00,2014-01-15 08:30:00,
2014-01-15 03:31:00,35.1,28.3,27.40,SSE,152,0.0,0.0,76,0.00,,,0.00,VWS V15.00,2014-01-15 08:31:00,